Time,TemperatureF,DewpointF,PressureIn,WindDirection,WindDirectionDegrees,WindSpeedMPH,WindSpeedGustMPH,Humidity,HourlyPrecipIn,Conditions,Clouds,dailyrainin,SolarRadiationWatts/m^2,SoftwareType,DateUTC
2013-05-27 00:11:00,42.0,42.0,-100.00,ESE,104,13.0,20.0,100,0.00,,,0.54,0.000000,,2013-05-27 06:11:00,
2013-05-27 00:21:00,42.0,42.0,-100.00,ESE,104,13.0,20.0,100,0.00,,,0.54,0.000000,,2013-05-27 06:21:00,
2013-05-27 00:32:00,42.0,42.0,-100.00,ESE,104,13.0,20.0,100,0.00,,,0.54,0.000000,,2013-05-27 06:32:00,
2013-05-27 00:41:00,42.0,42.0,-100.00,ESE,104,13.0,20.0,100,0.00,,,0.54,0.000000,,2013-05-27 06:41:00,
2013-05-27 00:52:00,42.0,42.0,-100.00,SSE,166,9.0,52.0,100,0.20,,,0.74,0.000000,,2013-05-27 06:52:00,
2013-05-27 01:11:00,42.0,42.0,-100.00,SSE,166,9.0,52.0,100,0.20,,,0.74,0.000000,,2013-05-27 07:11:00,
2013-05-27 01:21:00,42.0,42.0,-100.00,SSE,166,9.0,52.0,100,0.20,,,0.74,0.000000,,2013-05-27 07:21:00,
2013-05-27 01:31:00,42.0,42.0,-100.00,SSE,166,9.0,52.0,100,0.20,,,0.74,0.000000,,2013-05-27 07:31:00,
2013-05-27 01:41:00,42.0,42.0,-100.00,SSE,166,9.0,52.0,100,0.20,,,0.74,0.000000,,2013-05-27 07:41:00,
2013-05-27 02:11:00,41.0,41.0,-100.00,SSW,202,12.0,26.0,100,0.01,,,0.75,0.000000,,2013-05-27 08:11:00,
2013-05-27 02:21:00,41.0,41.0,-100.00,SSW,202,12.0,26.0,100,0.01,,,0.75,0.000000,,2013-05-27 08:21:00,
2013-05-27 02:32:00,41.0,41.0,-100.00,SSW,202,12.0,26.0,100,0.01,,,0.75,0.000000,,2013-05-27 08:32:00,
2013-05-27 02:42:00,41.0,41.0,-100.00,SSW,202,12.0,26.0,100,0.01,,,0.75,0.000000,,2013-05-27 08:42:00,
2013-05-27 02:51:00,41.0,41.0,-100.00,SSW,202,12.0,26.0,100,0.01,,,0.75,0.000000,,2013-05-27 08:51:00,
2013-05-27 02:52:00,40.0,40.0,-100.00,SSE,156,7.0,15.0,100,0.00,,,0.75,0.000000,,2013-05-27 08:52:00,
2013-05-27 03:11:00,40.0,40.0,-100.00,SSE,156,7.0,15.0,100,0.00,,,0.75,0.000000,,2013-05-27 09:11:00,
2013-05-27 03:21:00,40.0,40.0,-100.00,SSE,156,7.0,15.0,100,0.00,,,0.75,0.000000,,2013-05-27 09:21:00,
2013-05-27 03:33:00,40.0,40.0,-100.00,SSE,156,7.0,15.0,100,0.00,,,0.75,0.000000,,2013-05-27 09:33:00,
2013-05-27 03:42:00,40.0,40.0,-100.00,SSE,156,7.0,15.0,100,0.00,,,0.75,0.000000,,2013-05-27 09:42:00,
2013-05-27 03:52:00,42.0,42.0,-100.00,SE,136,11.0,15.0,100,0.00,,,-99.99,0.000000,,2013-05-27 09:52:00,
2013-05-27 04:12:00,42.0,42.0,-100.00,SE,136,11.0,15.0,100,0.00,,,-99.99,0.000000,,2013-05-27 10:12:00,
2013-05-27 04:22:00,42.0,42.0,-100.00,SE,136,11.0,15.0,100,0.00,,,-99.99,0.000000,,2013-05-27 10:22:00,
2013-05-27 04:32:00,42.0,42.0,-100.00,SE,136,11.0,15.0,100,0.00,,,-99.99,0.000000,,2013-05-27 10:32:00,
2013-05-27 04:42:00,42.0,42.0,-100.00,SE,136,11.0,15.0,100,0.00,,,-99.99,0.000000,,2013-05-27 10:42:00,
2013-05-27 05:11:00,42.0,42.0,-100.00,SSE,149,12.0,17.0,100,0.00,,,0.75,0.000000,,2013-05-27 11:11:00,
2013-05-27 05:21:00,42.0,42.0,-100.00,SSE,149,12.0,17.0,100,0.00,,,0.75,0.000000,,2013-05-27 11:21:00,
2013-05-27 05:32:00,42.0,42.0,-100.00,SSE,149,12.0,17.0,100,0.00,,,0.75,0.000000,,2013-05-27 11:32:00,
2013-05-27 05:42:00,42.0,42.0,-100.00,SSE,149,12.0,17.0,100,0.00,,,0.75,0.000000,,2013-05-27 11:42:00,
2013-05-27 05:51:00,42.0,42.0,-100.00,SSE,149,12.0,17.0,100,0.00,,,0.75,0.000000,,2013-05-27 11:51:00,
2013-05-27 05:52:00,41.0,41.0,-100.00,SE,142,12.0,17.0,100,0.00,,,0.75,6.000000,,2013-05-27 11:52:00,
2013-05-27 06:11:00,41.0,41.0,-100.00,SE,142,12.0,17.0,100,0.00,,,0.75,6.000000,,2013-05-27 12:11:00,
2013-05-27 06:21:00,41.0,41.0,-100.00,SE,142,12.0,17.0,100,0.00,,,0.75,6.000000,,2013-05-27 12:21:00,
2013-05-27 06:32:00,41.0,41.0,-100.00,SE,142,12.0,17.0,100,0.00,,,0.75,6.000000,,2013-05-27 12:32:00,
2013-05-27 06:42:00,41.0,41.0,-100.00,SE,142,12.0,17.0,100,0.00,,,0.75,6.000000,,2013-05-27 12:42:00,
2013-05-27 06:52:00,42.0,42.0,-100.00,SSW,208,10.0,14.0,100,0.00,,,0.75,70.000000,,2013-05-27 12:52:00,
2013-05-27 07:11:00,42.0,42.0,-100.00,SSW,208,10.0,14.0,100,0.00,,,0.75,70.000000,,2013-05-27 13:11:00,
2013-05-27 07:21:00,42.0,42.0,-100.00,SSW,208,10.0,14.0,100,0.00,,,0.75,70.000000,,2013-05-27 13:21:00,
2013-05-27 07:32:00,42.0,42.0,-100.00,SSW,208,10.0,14.0,100,0.00,,,0.75,70.000000,,2013-05-27 13:32:00,
2013-05-27 07:41:00,42.0,42.0,-100.00,SSW,208,10.0,14.0,100,0.00,,,0.75,70.000000,,2013-05-27 13:41:00,
2013-05-27 08:11:00,42.0,42.0,-100.00,SW,219,13.0,19.0,100,0.00,,,0.75,298.000000,,2013-05-27 14:11:00,
2013-05-27 08:21:00,42.0,42.0,-100.00,SW,219,13.0,19.0,100,0.00,,,0.75,298.000000,,2013-05-27 14:21:00,
2013-05-27 08:32:00,42.0,42.0,-100.00,SW,219,13.0,19.0,100,0.00,,,0.75,298.000000,,2013-05-27 14:32:00,
2013-05-27 08:42:00,42.0,42.0,-100.00,SW,219,13.0,19.0,100,0.00,,,0.75,298.000000,,2013-05-27 14:42:00,
2013-05-27 08:51:00,42.0,42.0,-100.00,SW,219,13.0,19.0,100,0.00,,,0.75,298.000000,,2013-05-27 14:51:00,
2013-05-27 08:52:00,43.0,43.0,-100.00,WSW,240,11.0,20.0,100,0.00,,,0.75,490.000000,,2013-05-27 14:52:00,
2013-05-27 09:11:00,43.0,43.0,-100.00,WSW,240,11.0,20.0,100,0.00,,,0.75,490.000000,,2013-05-27 15:11:00,
2013-05-27 09:21:00,43.0,43.0,-100.00,WSW,240,11.0,20.0,100,0.00,,,0.75,490.000000,,2013-05-27 15:21:00,
2013-05-27 09:33:00,43.0,43.0,-100.00,WSW,240,11.0,20.0,100,0.00,,,0.75,490.000000,,2013-05-27 15:33:00,
2013-05-27 09:43:00,43.0,43.0,-100.00,WSW,240,11.0,20.0,100,0.00,,,0.75,490.000000,,2013-05-27 15:43:00,
2013-05-27 09:52:00,45.0,45.0,-100.00,West,268,11.0,20.0,100,0.00,,,0.75,725.000000,,2013-05-27 15:52:00,
2013-05-27 10:12:00,45.0,45.0,-100.00,West,268,11.0,20.0,100,0.00,,,0.75,725.000000,,2013-05-27 16:12:00,
2013-05-27 10:23:00,45.0,45.0,-100.00,West,268,11.0,20.0,100,0.00,,,0.75,725.000000,,2013-05-27 16:23:00,
2013-05-27 10:33:00,45.0,45.0,-100.00,West,268,11.0,20.0,100,0.00,,,0.75,725.000000,,2013-05-27 16:33:00,
2013-05-27 10:42:00,45.0,45.0,-100.00,West,268,11.0,20.0,100,0.00,,,0.75,725.000000,,2013-05-27 16:42:00,
2013-05-27 10:52:00,47.0,47.0,-100.00,WNW,294,5.0,18.0,99,0.00,,,0.75,576.000000,,2013-05-27 16:52:00,
2013-05-27 11:11:00,47.0,47.0,-100.00,WNW,294,5.0,18.0,99,0.00,,,0.75,576.000000,,2013-05-27 17:11:00,
2013-05-27 11:22:00,47.0,47.0,-100.00,WNW,294,5.0,18.0,99,0.00,,,0.75,576.000000,,2013-05-27 17:22:00,
2013-05-27 11:32:00,47.0,47.0,-100.00,WNW,294,5.0,18.0,99,0.00,,,0.75,576.000000,,2013-05-27 17:32:00,
2013-05-27 11:42:00,47.0,47.0,-100.00,WNW,294,5.0,18.0,99,0.00,,,0.75,576.000000,,2013-05-27 17:42:00,
2013-05-27 11:52:00,48.0,43.0,-100.00,WNW,298,5.0,15.0,84,0.00,,,0.75,575.000000,,2013-05-27 17:52:00,
2013-05-27 12:11:00,48.0,43.0,-100.00,WNW,298,5.0,15.0,84,0.00,,,0.75,575.000000,,2013-05-27 18:11:00,
2013-05-27 12:21:00,48.0,43.0,-100.00,WNW,298,5.0,15.0,84,0.00,,,0.75,575.000000,,2013-05-27 18:21:00,
2013-05-27 12:32:00,48.0,43.0,-100.00,WNW,298,5.0,15.0,84,0.00,,,0.75,575.000000,,2013-05-27 18:32:00,
2013-05-27 12:42:00,48.0,43.0,-100.00,WNW,298,5.0,15.0,84,0.00,,,0.75,575.000000,,2013-05-27 18:42:00,
2013-05-27 12:52:00,49.0,41.0,-100.00,West,266,11.0,18.0,74,0.00,,,0.75,864.000000,,2013-05-27 18:52:00,
2013-05-27 13:11:00,49.0,41.0,-100.00,West,266,11.0,18.0,74,0.00,,,0.75,864.000000,,2013-05-27 19:11:00,
2013-05-27 13:21:00,49.0,41.0,-100.00,West,266,11.0,18.0,74,0.00,,,0.75,864.000000,,2013-05-27 19:21:00,
2013-05-27 13:31:00,49.0,41.0,-100.00,West,266,11.0,18.0,74,0.00,,,0.75,864.000000,,2013-05-27 19:31:00,
2013-05-27 13:41:00,49.0,41.0,-100.00,West,266,11.0,18.0,74,0.00,,,0.75,864.000000,,2013-05-27 19:41:00,
2013-05-27 13:52:00,47.0,41.0,-100.00,West,275,12.0,27.0,81,0.00,,,0.75,491.000000,,2013-05-27 19:52:00,
2013-05-27 14:11:00,47.0,41.0,-100.00,West,275,12.0,27.0,81,0.00,,,0.75,491.000000,,2013-05-27 20:11:00,
2013-05-27 14:22:00,47.0,41.0,-100.00,West,275,12.0,27.0,81,0.00,,,0.75,491.000000,,2013-05-27 20:22:00,
2013-05-27 14:32:00,47.0,41.0,-100.00,West,275,12.0,27.0,81,0.00,,,0.75,491.000000,,2013-05-27 20:32:00,
2013-05-27 14:41:00,47.0,41.0,-100.00,West,275,12.0,27.0,81,0.00,,,0.75,491.000000,,2013-05-27 20:41:00,
2013-05-27 14:52:00,48.0,41.0,-100.00,West,262,16.0,27.0,77,0.00,,,0.75,617.000000,,2013-05-27 20:52:00,
2013-05-27 15:12:00,48.0,41.0,-100.00,West,262,16.0,27.0,77,0.00,,,0.75,617.000000,,2013-05-27 21:12:00,
2013-05-27 15:21:00,48.0,41.0,-100.00,West,262,16.0,27.0,77,0.00,,,0.75,617.000000,,2013-05-27 21:21:00,
2013-05-27 15:33:00,48.0,41.0,-100.00,West,262,16.0,27.0,77,0.00,,,0.75,617.000000,,2013-05-27 21:33:00,
2013-05-27 15:43:00,48.0,41.0,-100.00,West,262,16.0,27.0,77,0.00,,,0.75,617.000000,,2013-05-27 21:43:00,
2013-05-27 15:52:00,48.0,41.0,-100.00,West,277,12.0,27.0,78,0.00,,,-99.99,383.000000,,2013-05-27 21:52:00,
2013-05-27 16:12:00,48.0,41.0,-100.00,West,277,12.0,27.0,78,0.00,,,-99.99,383.000000,,2013-05-27 22:12:00,
2013-05-27 16:22:00,48.0,41.0,-100.00,West,277,12.0,27.0,78,0.00,,,-99.99,383.000000,,2013-05-27 22:22:00,
2013-05-27 16:32:00,48.0,41.0,-100.00,West,277,12.0,27.0,78,0.00,,,-99.99,383.000000,,2013-05-27 22:32:00,
2013-05-27 16:42:00,48.0,41.0,-100.00,West,277,12.0,27.0,78,0.00,,,-99.99,383.000000,,2013-05-27 22:42:00,
2013-05-27 16:52:00,45.0,40.0,-100.00,WNW,282,11.0,25.0,84,0.00,,,0.73,317.000000,,2013-05-27 22:52:00,
2013-05-27 17:12:00,45.0,40.0,-100.00,WNW,282,11.0,25.0,84,0.00,,,0.73,317.000000,,2013-05-27 23:12:00,
2013-05-27 17:22:00,45.0,40.0,-100.00,WNW,282,11.0,25.0,84,0.00,,,0.73,317.000000,,2013-05-27 23:22:00,
2013-05-27 17:32:00,45.0,40.0,-100.00,WNW,282,11.0,25.0,84,0.00,,,0.73,317.000000,,2013-05-27 23:32:00,
2013-05-27 17:42:00,45.0,40.0,-100.00,WNW,282,11.0,25.0,84,0.00,,,0.73,317.000000,,2013-05-27 23:42:00,
2013-05-27 18:11:00,45.0,42.0,-100.00,WNW,291,12.0,27.0,89,0.00,,,0.73,245.000000,,2013-05-28 00:11:00,
2013-05-27 18:21:00,45.0,42.0,-100.00,WNW,291,12.0,27.0,89,0.00,,,0.73,245.000000,,2013-05-28 00:21:00,
2013-05-27 18:31:00,45.0,42.0,-100.00,WNW,291,12.0,27.0,89,0.00,,,0.73,245.000000,,2013-05-28 00:31:00,
2013-05-27 18:41:00,45.0,42.0,-100.00,WNW,291,12.0,27.0,89,0.00,,,0.73,245.000000,,2013-05-28 00:41:00,
2013-05-27 18:51:00,45.0,42.0,-100.00,WNW,291,12.0,27.0,89,0.00,,,0.73,245.000000,,2013-05-28 00:51:00,
2013-05-27 18:52:00,45.0,37.0,-100.00,WNW,292,18.0,28.0,72,0.00,,,0.73,321.000000,,2013-05-28 00:52:00,
2013-05-27 19:11:00,45.0,37.0,-100.00,WNW,292,18.0,28.0,72,0.00,,,0.73,321.000000,,2013-05-28 01:11:00,
2013-05-27 19:21:00,45.0,37.0,-100.00,WNW,292,18.0,28.0,72,0.00,,,0.73,321.000000,,2013-05-28 01:21:00,
2013-05-27 19:31:00,45.0,37.0,-100.00,WNW,292,18.0,28.0,72,0.00,,,0.73,321.000000,,2013-05-28 01:31:00,
2013-05-27 19:41:00,45.0,37.0,-100.00,WNW,292,18.0,28.0,72,0.00,,,0.73,321.000000,,2013-05-28 01:41:00,
2013-05-27 20:11:00,46.0,39.0,-100.00,WNW,288,16.0,28.0,76,0.00,,,0.73,149.000000,,2013-05-28 02:11:00,
2013-05-27 20:21:00,46.0,39.0,-100.00,WNW,288,16.0,28.0,76,0.00,,,0.73,149.000000,,2013-05-28 02:21:00,
2013-05-27 20:32:00,46.0,39.0,-100.00,WNW,288,16.0,28.0,76,0.00,,,0.73,149.000000,,2013-05-28 02:32:00,
2013-05-27 20:41:00,46.0,39.0,-100.00,WNW,288,16.0,28.0,76,0.00,,,0.73,149.000000,,2013-05-28 02:41:00,
2013-05-27 20:51:00,46.0,39.0,-100.00,WNW,288,16.0,28.0,76,0.00,,,0.73,149.000000,,2013-05-28 02:51:00,
2013-05-27 20:52:00,44.0,39.0,-100.00,WNW,296,15.0,23.0,81,0.00,,,0.73,22.000000,,2013-05-28 02:52:00,
2013-05-27 21:11:00,44.0,39.0,-100.00,WNW,296,15.0,23.0,81,0.00,,,0.73,22.000000,,2013-05-28 03:11:00,
2013-05-27 21:21:00,44.0,39.0,-100.00,WNW,296,15.0,23.0,81,0.00,,,0.73,22.000000,,2013-05-28 03:21:00,
2013-05-27 21:33:00,44.0,39.0,-100.00,WNW,296,15.0,23.0,81,0.00,,,0.73,22.000000,,2013-05-28 03:33:00,
2013-05-27 21:43:00,44.0,39.0,-100.00,WNW,296,15.0,23.0,81,0.00,,,0.73,22.000000,,2013-05-28 03:43:00,
2013-05-27 21:52:00,43.0,37.0,-100.00,WNW,292,19.0,26.0,78,0.00,,,0.30,1.000000,,2013-05-28 03:52:00,
2013-05-27 22:12:00,43.0,37.0,-100.00,WNW,292,19.0,26.0,78,0.00,,,0.30,1.000000,,2013-05-28 04:12:00,
2013-05-27 22:22:00,43.0,37.0,-100.00,WNW,292,19.0,26.0,78,0.00,,,0.30,1.000000,,2013-05-28 04:22:00,
2013-05-27 22:33:00,43.0,37.0,-100.00,WNW,292,19.0,26.0,78,0.00,,,0.30,1.000000,,2013-05-28 04:33:00,
2013-05-27 22:42:00,43.0,37.0,-100.00,WNW,292,19.0,26.0,78,0.00,,,0.30,1.000000,,2013-05-28 04:42:00,
2013-05-27 22:52:00,41.0,34.0,-100.00,NW,307,16.0,26.0,77,0.00,,,0.21,0.000000,,2013-05-28 04:52:00,
2013-05-27 23:12:00,41.0,34.0,-100.00,NW,307,16.0,26.0,77,0.00,,,0.21,0.000000,,2013-05-28 05:12:00,
2013-05-27 23:22:00,41.0,34.0,-100.00,NW,307,16.0,26.0,77,0.00,,,0.21,0.000000,,2013-05-28 05:22:00,
2013-05-27 23:32:00,41.0,34.0,-100.00,NW,307,16.0,26.0,77,0.00,,,0.21,0.000000,,2013-05-28 05:32:00,
2013-05-27 23:42:00,41.0,34.0,-100.00,NW,307,16.0,26.0,77,0.00,,,0.21,0.000000,,2013-05-28 05:42:00,